Time,TemperatureF,DewpointF,PressureIn,WindDirection,WindDirectionDegrees,WindSpeedMPH,WindSpeedGustMPH,Humidity,HourlyPrecipIn,Conditions,Clouds,dailyrainin,SoftwareType,DateUTC
2014-09-02 00:02:00,59.5,38.2,29.82,SSW,195,0.0,1.0,45,0.00,,---,0.00,VWS V14.01,2014-09-02 07:02:00,
2014-09-02 00:12:00,59.0,37.7,29.82,SSW,195,0.0,1.0,45,0.00,,---,0.00,VWS V14.01,2014-09-02 07:12:00,
2014-09-02 00:22:00,59.0,37.7,29.82,SSW,196,0.0,1.0,45,0.00,,---,0.00,VWS V14.01,2014-09-02 07:22:00,
2014-09-02 00:32:00,58.8,38.1,29.82,SSW,195,0.0,1.0,46,0.00,,---,0.00,VWS V14.01,2014-09-02 07:32:00,
2014-09-02 00:42:00,58.3,37.6,29.83,SSW,195,0.0,1.0,46,0.00,,---,0.00,VWS V14.01,2014-09-02 07:42:00,
2014-09-02 00:52:00,57.9,37.8,29.83,SSW,195,0.0,1.0,47,0.00,,---,0.00,VWS V14.01,2014-09-02 07:52:00,
2014-09-02 01:02:00,57.6,37.5,29.83,SSW,195,0.0,1.0,47,0.00,,---,0.00,VWS V14.01,2014-09-02 08:02:00,
2014-09-02 01:12:00,57.3,37.8,29.81,SSW,195,0.0,1.0,48,0.00,,---,0.00,VWS V14.01,2014-09-02 08:12:00,
2014-09-02 01:22:00,56.9,37.4,29.81,SSW,195,0.0,1.0,48,0.00,,---,0.00,VWS V14.01,2014-09-02 08:22:00,
2014-09-02 01:32:00,56.6,37.7,29.81,SSW,195,0.0,1.0,49,0.00,,---,0.00,VWS V14.01,2014-09-02 08:32:00,
2014-09-02 01:42:00,56.3,37.4,29.81,SSW,196,0.0,1.0,49,0.00,,---,0.00,VWS V14.01,2014-09-02 08:42:00,
2014-09-02 01:52:00,56.1,37.2,29.81,SSW,195,0.0,1.0,49,0.00,,---,0.00,VWS V14.01,2014-09-02 08:52:00,
2014-09-02 02:02:00,55.9,37.0,29.81,SSW,196,0.0,1.0,49,0.00,,---,0.00,VWS V14.01,2014-09-02 09:02:00,
2014-09-02 02:12:00,55.6,37.3,29.80,SSW,195,0.0,1.0,50,0.00,,---,0.00,VWS V14.01,2014-09-02 09:12:00,
2014-09-02 02:22:00,55.3,37.0,29.81,SSW,195,0.0,1.0,50,0.00,,---,0.00,VWS V14.01,2014-09-02 09:22:00,
2014-09-02 02:32:00,54.9,36.6,29.81,SSW,195,0.0,1.0,50,0.00,,---,0.00,VWS V14.01,2014-09-02 09:32:00,
2014-09-02 02:42:00,54.6,36.3,29.81,SSW,194,0.0,1.0,50,0.00,,---,0.00,VWS V14.01,2014-09-02 09:42:00,
2014-09-02 02:52:00,54.3,36.6,29.81,SSW,195,0.0,1.0,51,0.00,,---,0.00,VWS V14.01,2014-09-02 09:52:00,
2014-09-02 03:02:00,54.1,36.4,29.81,SSW,195,0.0,1.0,51,0.00,,---,0.00,VWS V14.01,2014-09-02 10:02:00,
2014-09-02 03:12:00,53.8,36.1,29.81,SSW,196,0.0,1.0,51,0.00,,---,0.00,VWS V14.01,2014-09-02 10:12:00,
2014-09-02 03:22:00,53.5,35.8,29.81,SSW,194,0.0,1.0,51,0.00,,---,0.00,VWS V14.01,2014-09-02 10:22:00,
2014-09-02 03:32:00,53.2,35.6,29.81,SSW,195,0.0,0.0,51,0.00,,---,0.00,VWS V14.01,2014-09-02 10:32:00,
2014-09-02 03:42:00,53.0,35.4,29.81,SSW,194,0.0,1.0,51,0.00,,---,0.00,VWS V14.01,2014-09-02 10:42:00,
2014-09-02 03:52:00,52.7,35.6,29.81,SSW,195,0.0,1.0,52,0.00,,---,0.00,VWS V14.01,2014-09-02 10:52:00,
2014-09-02 04:02:00,52.4,35.3,29.82,SSW,194,0.0,1.0,52,0.00,,---,0.00,VWS V14.01,2014-09-02 11:02:00,
2014-09-02 04:12:00,52.1,35.0,29.82,SSW,195,0.0,1.0,52,0.00,,---,0.00,VWS V14.01,2014-09-02 11:12:00,
2014-09-02 04:32:00,51.6,35.0,29.82,SSW,196,0.0,1.0,53,0.00,,---,0.00,VWS V14.01,2014-09-02 11:32:00,
2014-09-02 04:42:00,51.4,34.9,29.82,SSW,194,0.0,1.0,53,0.00,,---,0.00,VWS V14.01,2014-09-02 11:42:00,
2014-09-02 04:52:00,51.2,35.1,29.82,SSW,196,0.0,1.0,54,0.00,,---,0.00,VWS V14.01,2014-09-02 11:52:00,
2014-09-02 05:02:00,51.0,35.4,29.83,SSW,194,0.0,1.0,55,0.00,,---,0.00,VWS V14.01,2014-09-02 12:02:00,
2014-09-02 05:12:00,50.8,35.7,29.83,SSW,195,0.0,1.0,56,0.00,,---,0.00,VWS V14.01,2014-09-02 12:12:00,